星链-34301 (STARLINK-34301)

导读

STARLINK-34301是美国SpaceX公司星链(Starlink)低轨互联网星座中的一颗卫星,于2025年6月13日由美国发射升空,属于星链巨型星座部署计划的一部分。该卫星运行于近地轨道,是SpaceX构建全球高速卫星互联网组网的组成单元,旨在为全球偏远地区提供低延迟宽带互联网接入服务,助力全球网络覆盖的完善,推动卫星互联网服务普及。

基本信息
目录编号:
64349
目录名称:
STARLINK-34301
国际标识:
2025-126F
轨道中心:
EARTH
卫星名称:
星链-34301
卫星全名:
星链-34301 (STARLINK-34301)
卫星状态:
在轨 (已飞行365 天)
发射日期:
2025-06-13 UTC
国别 :
美国 (US)
星等 :
--
轨道信息
数据来源 国际轨道数据 AOE轨道数据
星历时间 2026-06-13T16:34:14+0800
15小时前
查看轨道信息
2026-06-13T06:00:00+0800
1天前
查看轨道信息
半长轴 6950.157km 6950.195km
偏心率 0.0003903 0.0003952
轨道倾角 70.000° 69.999°
近地点辐角 263.754° 266.076°
升交点赤经 153.176° 154.285°
平近点角 96.318° 238.903°
近地点 569.307km 569.311km
远地点 574.733km 574.805km
周期 96.106分钟 96.107分钟
每日圈数 14.983417 14.983296
详细信息
固有亮度:
5
最大亮度:
2.5
卫星平台:
Starlink V1.0
覆盖范围:
全球
运营商:
太空探索技术公司
运营商所在国:
美国
制造商(研发单位):
太空探索技术公司
制造商所在国:
美国
使用方式:
暂无
卫星简介
Starlink 计划是 SpaceX 推出的全球卫星互联网项目,通过发射低轨道卫星,为全球尤其是偏远地区提供高速、低延迟的互联网服务。自 2019 年起,Starlink 已部署数千颗卫星,旨在缩小全球数字鸿沟,推动互联网普及。该项目还为军事、航空等行业提供通信支持,带来广泛经济效益。
2D轨道图
3D轨道图
轨道高度分析图
轨道倾角分析图
轨道综合分析图
查看轨道综合分析图